sat.trackr.live / text

‹ back to catalog

STARLINK-32433

NORAD 61852 · 2024-202H

PAYLOAD ACTIVE UNKNOWN

§ Identity

Operator
Country
US
Launch date
2024-11-07
Launch site
AFETR
Launch vehicle
Mass (kg)
RCS (m²)

Purposes: comms

External: N2YO · Heavens-Above · Gunter

§ Orbital elements

Epoch: 2026-05-25T01:50:42.438048Z

Period
94.27 min
Inclination
43.0009°
Eccentricity
0.0001279
Mean motion
15.27576424 rev/d
Perigee alt
482.2 km
Apogee alt
483.9 km
Semi-major
6,861.2 km
B*
3.9567e-5
RAAN
166.2861°
Arg perigee
274.7690°
Mean anomaly
85.3015°
Rev number
8,702

§ Raw data

STARLINK-324331 61852U 24202H   26145.07688007  .00000827  00000+0  39567-4 0  99962 61852  43.0009 166.2861 0001279 274.7690  85.3015 15.27576424 87026

JSON: /api/v1/satellites/61852 · /tle

For live sub-satellite position, see the globe view (requires WebGL).

§ Visibility from observer

Set your observer location to see the next 7 days of passes ≥ 10°. The values pass through the URL so the page stays shareable.

No JS? Fill the form by hand. The geolocation button needs JavaScript.